Location: Morlupo
(42.1333°N, 12.5000°E)
Time: 16:40:49
(UTC+00:00)

Cosmos 990 Rocket - Pass Details

Date: 18 September 2020
Orbit: 746 x 769 km, 74.0° (Epoch: 25 October)

Event Time Altitude Azimuth Distance (km) Brightness Sun altitude
Rises 17:55:54 0° 204° (SSW) 3,177 7.4 -8.6°
Reaches altitude 10° 17:58:15 10° 207° (SSW) 2,256 6.7 -9.0°
Maximum altitude 18:03:21 70° 291° (WNW) 795 4.3 -10.0°
Drops below altitude 10° 18:08:29 10° 15° (NNE) 2,273 6.4 -10.9°
Sets 18:10:52 0° 18° (NNE) 3,203 7.2 -11.3°
